Location: Stretham
(52.3667°N, 0.2167°E)
Time: 10:36:51
(UTC+00:00)

Daily predictions for brighter satellites

Satellite Brightness Start Highest point End
(mag) Time Altitude Azimuth Time Altitude Azimuth Time Altitude Azimuth
Cosmos 1536 Rocket 4.2 19:36:22 10° N 19:40:32 39° ENE 19:44:42 10° SE
SJ 16-02 3.5 19:37:59 10° NW 19:41:40 27° W 19:45:19 10° SSW
DELTA 2 DEB (DPAF) 4.1 19:41:09 10° NNE 19:45:22 60° ESE 19:49:32 10° S
Resurs 01 Rocket 1.7 19:42:09 10° SSE 19:46:34 88° E 19:51:03 10° NNW
CENTAUR R/B 3.9 19:40:39 10° NW 19:47:45 44° NNE 19:56:04 10° E
NOSS 3-1 (A) 3.4 19:47:08 10° SSW 19:51:50 42° ESE 19:57:26 10° NE
Cosmos 1300 Rocket 4.0 19:49:31 10° SSW 19:53:54 68° WNW 19:58:19 10° N
ERS-1 Rocket 4.0 19:51:38 10° ESE 19:55:58 30° ENE 20:00:20 10° N
Cosmos 1934 Rocket 4.2 19:53:20 10° N 19:59:24 56° ENE 20:05:30 10° SSE
USA 229 DEB 4.5 19:56:22 10° SSE 20:01:08 24° ESE 20:06:15 10° ENE
USA 229 4.5 19:56:30 10° SSE 20:01:15 24° ESE 20:06:20 10° ENE
Cosmos 2151 Rocket 3.9 19:59:15 10° SSE 20:03:28 46° E 20:07:44 10° NNE
USA 234 3.9 19:59:19 10° SE 20:05:38 50° SW 20:11:58 10° WNW
ATLAS CENTAUR R/B 2.7 20:03:25 10° NNW 20:06:37 26° NNE 20:09:55 10° E
USA 281 3.3 20:00:11 10° SSE 20:06:46 88° WSW 20:13:24 10° NNW
Cosmos 2227 Rocket 3.0 20:02:16 10° NNW 20:07:35 39° NE 20:12:21 13° ESE
Iridium 2 3.4 20:09:08 10° N 20:12:00 44° E 20:14:16 14° SSE
NOSS 3-1 (C) 3.3 20:06:59 10° SW 20:12:05 84° NW 20:18:22 10° NE
SL-4 R/B 1.6 20:11:38 10° W 20:15:16 73° S 20:17:57 16° ESE
Cosmos 371 Rocket 3.4 20:11:24 10° NNW 20:16:13 77° WSW 20:20:59 10° SSE
Landsat 4 4.0 20:17:01 16° SE 20:19:34 44° ENE 20:22:57 10° N
Cosmos 304 Rocket 3.8 20:15:15 10° NNW 20:20:03 86° WSW 20:24:31 12° SSE
Cosmos 1777 Rocket 4.1 20:15:20 10° NNW 20:20:38 84° WSW 20:25:46 11° SSE
MetOp-B 4.2 20:15:38 10° SSE 20:20:57 69° ENE 20:26:18 10° NNW
Cosmos 1697 Rocket 4.1 20:18:57 14° SE 20:21:19 18° E 20:25:06 10° ENE
COSMOS 2455 3.0 20:17:04 10° NW 20:23:08 69° NE 20:27:59 16° SE
Okean 2 Rocket 3.1 20:21:00 10° S 20:25:28 70° E 20:29:59 10° NNE
ATLAS 3B R/B 2.8 20:18:28 10° SW 20:25:36 76° SE 20:33:16 10° NE
NOSS 8 (E) 4.3 20:26:48 10° NW 20:29:49 78° NE 20:31:59 22° SE
SPOT 5 3.1 20:26:04 11° SSE 20:31:08 78° ENE 20:36:22 10° NNW
IRS-1A Rocket 4.4 20:28:48 12° SSE 20:34:16 77° ENE 20:40:07 10° NNW
Cosmos 405 Rocket 3.9 20:33:26 21° ESE 20:34:26 23° E 20:37:25 10° NE
CZ-4C R/B 3.0 20:29:24 10° NW 20:36:06 70° NE 20:42:37 17° ESE
Cosmos 2297 Rocket 2.2 20:30:31 10° NNW 20:36:14 88° ENE 20:40:35 18° SSE
BlueWalker 3 2.5 20:34:30 10° SW 20:38:01 36° SSE 20:40:37 16° E
Spot 2 Rocket 3.8 20:36:24 19° SE 20:39:53 52° ENE 20:44:47 10° N
Cosmos 1354 Rocket 4.4 20:35:56 10° NNW 20:41:13 63° WSW 20:45:57 13° S
Cosmos 2369 Rocket 4.4 20:37:09 10° W 20:42:01 28° NW 20:46:52 10° NNE
Terra 2.0 20:40:08 20° SE 20:43:17 57° ENE 20:47:56 10° N
Cosmos 1656 3.7 20:38:37 10° S 20:44:02 56° ESE 20:49:26 10° NE
Cosmos 1455 Rocket 3.8 20:46:46 24° SE 20:48:39 34° E 20:52:38 10° NNE
Cosmos 332 Rocket 3.8 20:43:52 10° NNW 20:48:45 84° ENE 20:51:54 22° SSE
Okean 1 Rocket 3.0 20:44:23 10° S 20:48:49 76° E 20:53:19 10° NNE
ATLAS 5 CENTAUR R/B 2.2 20:45:34 10° WSW 20:48:56 47° NW 20:52:49 10° NE
Sich 1 Rocket 3.9 20:44:47 10° SSW 20:49:11 71° WNW 20:53:41 10° N
Iridium 4 Rocket 3.7 20:44:20 10° S 20:49:54 80° E 20:55:47 10° N
USA 245 3.7 20:46:54 18° SSE 20:50:39 78° ENE 20:54:52 10° NNW
Cosmos 2219 3.8 20:45:38 10° NNW 20:51:05 45° NE 20:54:33 21° ESE
Okean-O 3.7 20:49:16 10° S 20:53:27 42° W 20:57:40 10° NNW
CZ-4C R/B 3.6 20:51:40 10° N 20:55:03 57° WNW 20:58:22 10° SSW
Cosmos 1437 Rocket 2.8 20:54:49 10° N 20:58:43 61° ENE 21:00:22 32° SE
Ariane Rocket 3.0 20:56:31 23° SSE 20:59:41 74° ENE 21:04:45 10° NNW
Cosmos 1763 Rocket 3.7 20:57:45 18° S 21:01:08 45° ESE 21:06:02 10° NE
Cosmos 2263 Rocket 3.0 20:57:36 10° NNW 21:02:54 39° NE 21:06:06 21° ESE
Cosmos 44 3.6 21:00:26 10° SSW 21:05:42 55° SE 21:10:53 10° NE
Okean O Rocket 4.2 21:05:33 10° SW 21:08:32 18° W 21:11:34 10° NW
Cosmos 990 Rocket 4.0 21:03:47 10° NNW 21:09:00 83° WSW 21:11:52 27° SSE
Cosmos 2082 4.4 21:04:02 10° NNW 21:09:26 42° NE 21:12:29 23° ESE
USA 267 3.5 21:04:01 10° ENE 21:10:33 72° NNW 21:17:04 10° W
ARGOS Delta rocket 4.2 21:08:36 27° SSE 21:11:32 65° ENE 21:16:58 10° N
Cosmos 2173 Rocket 4.5 21:07:44 10° N 21:13:54 47° ENE 21:17:01 27° SE
NOSS 3-2 (A) 4.3 21:07:13 10° NW 21:14:03 59° NE 21:19:58 20° ESE
Cosmos 1605 Rocket 4.2 21:07:50 10° NNW 21:14:15 77° W 21:19:09 18° S
Aureole 1 Rocket 2.0 21:12:30 10° NNW 21:15:31 84° ENE 21:15:56 63° SE
Meteor 2-3 Rocket 4.5 21:11:59 10° N 21:17:18 39° ENE 21:19:41 27° ESE
Cosmos 540 Rocket 3.7 21:18:45 30° SSE 21:20:52 48° ESE 21:25:46 10° NE
Cosmos 1153 Rocket 4.5 21:15:59 10° N 21:22:21 80° E 21:25:55 28° SSE
Cosmos 1606 4.4 21:23:40 18° ENE 21:23:40 18° ENE 21:25:29 10° NE
Resurs 01 Rocket 4.4 21:21:31 10° WSW 21:23:40 13° W 21:25:51 10° WNW
Cosmos 2058 2.8 21:21:24 10° N 21:25:26 68° ENE 21:26:27 47° SE
MOS 1 Rocket 3.0 21:25:21 40° SSE 21:26:49 73° ENE 21:31:13 10° N
Cosmos 1626 Rocket 3.9 21:23:44 10° N 21:28:02 49° ENE 21:29:06 39° ESE
Cosmos 372 Rocket 4.1 21:24:53 10° NNW 21:30:07 66° ENE 21:32:09 37° SE
Cosmos 468 Rocket 4.0 21:31:31 33° S 21:33:41 57° ESE 21:38:49 10° NNE
ERS-1 Rocket 3.7 21:31:22 20° SSW 21:34:33 48° W 21:39:26 10° NNW
Cosmos 1802 Rocket 4.4 21:30:19 10° N 21:36:26 51° ENE 21:38:59 33° SE
SPOT 3 Rocket 3.8 21:35:46 28° S 21:38:31 63° WSW 21:43:41 10° NNW
CENTAUR R/B 3.2 21:31:29 10° NW 21:39:29 84° NE 21:44:47 29° SE
Landsat 5 3.3 21:38:03 10° NNE 21:42:19 72° ESE 21:43:13 52° SSE
NOSS 3-1 (A) 4.1 21:37:21 10° WSW 21:42:31 53° NNW 21:48:55 10° NE
Cosmos 1869 4.1 21:43:56 35° ENE 21:43:56 35° ENE 21:47:00 10° NNE
Cosmos 2016 Rocket 4.4 21:37:48 10° N 21:43:43 48° ENE 21:45:55 34° ESE
Cosmos 841 Rocket 4.1 21:43:35 36° ESE 21:43:44 36° ESE 21:48:24 10° NE
ATLAS CENTAUR R/B 1.2 21:40:57 10° NW 21:44:40 63° SW 21:45:04 59° SSW
Cosmos 1844 Rocket 4.3 21:42:27 10° NNW 21:47:05 25° NE 21:50:31 15° E
Intercosmos 25 3.3 21:42:34 10° N 21:47:37 78° ENE 21:48:13 61° SE
Cosmos 1544 Rocket 3.6 21:49:26 53° ESE 21:49:47 54° E 21:54:01 10° NNE
USA 229 DEB 3.5 21:44:54 10° SW 21:51:09 90° SE 21:58:07 10° NE
USA 229 3.5 21:45:00 10° SW 21:51:15 89° SE 21:58:13 10° NE
Cosmos 2100 Rocket 4.0 21:45:07 10° N 21:51:33 84° E 21:54:15 37° SSE
Cosmos 2227 Rocket 2.7 21:46:20 10° NW 21:51:50 51° WSW 21:54:10 31° SSW
Cosmos 1727 Rocket 3.9 21:49:07 28° S 21:52:42 86° E 21:58:59 10° N
SL-4 R/B 3.2 21:50:39 10° W 21:52:47 25° WSW 21:52:47 25° WSW
H-2A R/B 3.3 21:54:16 31° ENE 21:54:20 31° ENE 21:57:44 10° N
Cosmos 292 Rocket 3.7 21:50:58 10° NNW 21:55:43 75° WSW 21:56:52 51° S
Cosmos 1980 Rocket 2.5 21:55:14 42° SE 21:55:49 43° ESE 22:01:08 10° NE
Cosmos 1937 Rocket 3.5 21:56:58 10° NNW 22:02:19 82° WSW 22:03:46 49° SSE
Okean 1-7 Rocket 3.6 21:59:00 10° N 22:03:33 70° ENE 22:04:09 61° SE
Cosmos 1000 Rocket 4.4 22:01:36 39° S 22:04:01 76° E 22:10:11 10° NNE
Cosmos 1697 Rocket 2.6 22:00:32 21° SSW 22:04:31 90° SE 22:10:14 10° NNE
Cosmos 2360 4.4 22:00:23 10° SW 22:06:04 72° WNW 22:11:48 10° NNE
Cosmos 2123 Rocket 4.1 22:05:45 42° SE 22:07:36 58° E 22:13:48 10° NNE
COSMOS 2455 4.1 22:03:30 10° NW 22:08:39 30° WSW 22:11:08 22° SSW
MetOp-A 3.9 22:08:40 42° WSW 22:09:07 44° W 22:12:47 10° NNW
Cosmos 405 Rocket 4.1 22:07:46 22° WSW 22:09:30 34° WNW 22:12:56 10° N
CZ-2C R/B 4.2 22:06:14 10° NNE 22:10:47 45° E 22:10:47 45° E
Cosmos 1602 Rocket 3.4 22:06:36 10° N 22:10:58 76° E 22:11:18 71° ESE
Cosmos 1758 Rocket 3.4 22:07:09 10° N 22:11:38 85° E 22:12:06 71° SSE
Cosmos 2228 2.9 22:14:51 65° E 22:14:51 65° E 22:18:52 10° NNE
Cosmos 1898 Rocket 4.0 22:09:51 10° NNW 22:14:56 50° WSW 22:16:18 40° SSW
BlueWalker 3 2.5 22:12:14 10° WSW 22:15:07 50° W 22:15:07 50° W
ATLAS 3B R/B 3.9 22:09:53 10° W 22:16:58 47° NNW 22:24:26 10° NE
ARIANE 5 R/B 2.6 22:17:17 67° ESE 22:17:42 73° ENE 22:22:12 10° N
Cosmos 2297 Rocket 4.2 22:15:41 10° WNW 22:19:31 19° W 22:22:24 13° SW
Terra 3.7 22:18:50 16° SW 22:21:14 22° W 22:24:58 10° NW
CZ-4C R/B 3.6 22:17:54 10° NW 22:24:37 44° WSW 22:27:43 32° SSW
Cosmos 2369 3.7 22:27:49 56° SE 22:28:21 59° ESE 22:33:55 10° NE
Cosmos 1606 Rocket 4.4 22:30:33 36° ENE 22:30:33 36° ENE 22:33:54 10° NNE
Cosmos 1825 Rocket 3.7 22:25:43 10° N 22:30:02 58° ENE 22:30:02 58° ENE
Cosmos 1666 3.9 22:26:56 10° N 22:29:23 31° NE 22:29:23 31° NE
Meteor 2-1 Rocket 4.3 22:28:09 38° SSW 22:30:17 70° WNW 22:35:48 10° N
NOSS 3-2 (C) 4.1 22:23:15 10° NW 22:30:20 73° NE 22:34:32 32° ESE
SL-08 R/B 4.4 22:24:25 10° N 22:30:49 84° ENE 22:32:34 51° SSE
Lacrosse 4 Rocket 3.6 22:33:41 15° ENE 22:33:41 15° ENE 22:34:33 10° NE
Meteor 2-8 Rocket 4.4 22:25:49 10° NNW 22:32:01 89° W 22:33:42 52° S
H-2A R/B 4.4 22:29:57 10° ENE 22:30:48 12° ENE 22:30:48 12° ENE
Cosmos 1725 Rocket 3.9 22:27:12 10° NNW 22:33:24 83° W 22:35:10 50° S
Cosmos 2233 Rocket 4.0 22:27:36 10° N 22:33:48 72° ENE 22:35:19 52° SE
ATLAS 5 CENTAUR R/B 4.0 22:30:55 10° WNW 22:33:48 20° N 22:37:05 10° NE
Cosmos 1459 Rocket 4.3 22:28:30 10° NNW 22:34:25 57° W 22:36:35 37° SSW
Cosmos 2219 3.9 22:29:56 10° NW 22:35:14 41° WSW 22:36:27 36° SW
ALOS 2 3.4 22:35:57 39° ENE 22:36:06 39° ENE 22:40:12 10° N
Cosmos 2061 Rocket 4.0 22:33:48 10° N 22:40:17 86° ENE 22:42:00 53° SSE
Cosmos 1862 3.5 22:37:13 10° N 22:40:37 66° NNW 22:40:37 66° NNW
Cosmos 2263 Rocket 2.6 22:41:34 10° NW 22:46:58 49° WSW 22:47:47 45° SW
Cosmos 1271 Rocket 3.5 22:46:11 10° N 22:49:07 45° NNE 22:49:07 45° NNE
Cosmos 2360 Rocket 4.1 22:51:06 15° E 22:51:06 15° E 22:53:28 10° ENE
Cosmos 1500 4.1 22:47:41 10° N 22:50:09 43° N 22:50:09 43° N
USA 267 3.7 22:46:50 10° E 22:53:16 61° N 22:59:42 10° WNW
Cosmos 2082 4.2 22:48:14 10° NW 22:53:35 44° WSW 22:54:20 42° SW
Cosmos 1606 3.8 22:57:45 37° WNW 22:57:45 37° WNW 23:00:50 10° N
Lacrosse 5 4.2 23:05:57 12° E 23:05:57 12° E 23:06:25 10° ENE
Cosmos 2333 Rocket 4.0 23:03:47 17° E 23:03:47 17° E 23:06:29 10° ENE
Cosmos 2322 Rocket 3.6 23:03:59 24° E 23:03:59 24° E 23:07:39 10° NE
PSLV R/B 4.2 23:00:14 10° N 23:03:54 63° NW 23:03:54 63° NW
Cosmos 2219 Rocket 4.5 23:05:42 10° E 23:05:42 10° E 23:06:04 10° E
NOSS 3-2 (A) 4.2 22:58:02 10° NW 23:05:10 57° SW 23:07:20 45° S
Spot 4 3.7 23:09:21 79° WSW 23:09:22 79° WSW 23:14:12 10° NNW
Cosmos 1726 Rocket 3.9 23:10:52 60° NE 23:10:52 60° NE 23:14:31 10° NNE
Meteor 2-19 Rocket 4.3 23:16:06 61° SSW 23:17:16 86° W 23:23:25 10° N
Cosmos 1238 Rocket 4.3 23:19:41 28° NE 23:19:41 28° NE 23:21:46 10° NNE
Cosmos 1953 Rocket 3.8 23:15:19 10° NNW 23:19:07 65° NW 23:19:07 65° NW
Cosmos 1844 3.8 23:16:44 10° NNW 23:22:32 74° ENE 23:23:28 61° ESE
SL-16 R/B 2.5 23:22:57 50° E 23:22:57 50° E 23:28:08 10° NE
Cosmos 841 Rocket 4.4 23:23:34 30° WSW 23:25:31 42° NW 23:30:25 10° NNE
H-2A R/B 4.0 23:30:18 24° WNW 23:30:18 24° WNW 23:32:39 10° NW
CENTAUR R/B 4.0 23:22:29 10° NW 23:29:56 37° WSW 23:31:56 34° SW
USA 238 DEB 3.8 23:22:54 10° NW 23:30:10 87° NE 23:32:58 44° SE
USA 238 3.8 23:23:00 10° NW 23:30:16 87° NE 23:33:05 44° SE
Cosmos 1125 Rocket 3.3 23:26:23 10° NNW 23:31:40 88° ENE 23:31:49 85° SE
Cosmos 1844 Rocket 2.5 23:26:04 10° NNW 23:31:43 89° WSW 23:32:08 78° SSE
Cosmos 1812 4.2 23:37:39 31° NNE 23:37:39 31° NNE 23:39:44 10° NNE
Cosmos 2084 4.5 23:38:04 38° NNE 23:38:04 38° NNE 23:40:33 10° NE
PSLV R/B 4.2 23:35:03 10° NNE 23:39:04 51° ENE 23:39:04 51° ENE
Cosmos 1980 Rocket 3.2 23:36:55 24° WSW 23:39:51 43° NW 23:45:16 10° NNE
Cosmos 1072 Rocket 4.4 23:34:58 10° N 23:41:25 81° E 23:42:32 63° SSE
Meteor 2-14 Rocket 4.4 23:41:04 60° SE 23:41:48 66° E 23:47:55 10° NNE
Cosmos 2346 Rocket 4.3 23:42:06 66° S 23:43:03 87° E 23:49:21 10° N
Cosmos 2151 3.9 23:39:38 10° NNW 23:42:57 43° WNW 23:42:57 43° WNW
Cosmos 2278 3.5 23:44:40 76° SSW 23:45:10 90° W 23:50:54 10° NNE
Timation 2 Rocket 4.0 23:40:16 10° NNW 23:46:59 86° ENE 23:48:19 59° SE
